Time,TemperatureF,DewpointF,PressureIn,WindDirection,WindDirectionDegrees,WindSpeedMPH,WindSpeedGustMPH,Humidity,HourlyPrecipIn,Conditions,Clouds,dailyrainin,SoftwareType,DateUTC
2013-12-27 00:22:00,25.0,23.0,30.38,SSE,167,0.0,0.0,91,0.00,,,0.00,,2013-12-27 05:22:00,
2013-12-27 00:52:00,25.0,23.0,30.38,SSE,167,0.0,0.0,92,0.00,,,0.00,,2013-12-27 05:52:00,
2013-12-27 01:22:00,24.0,22.0,30.38,SSE,167,0.0,0.0,93,0.00,,,0.00,,2013-12-27 06:22:00,
2013-12-27 01:43:00,24.0,22.0,30.38,SSE,167,0.0,0.0,93,0.00,,,0.00,,2013-12-27 06:43:00,
2013-12-27 01:52:00,24.0,22.0,30.39,SSE,167,0.0,0.0,93,0.00,,,0.00,,2013-12-27 06:52:00,
2013-12-27 02:22:00,24.0,23.0,30.40,SSE,167,0.0,0.0,94,0.00,,,0.00,,2013-12-27 07:22:00,
2013-12-27 02:42:00,24.0,23.0,30.40,SSE,167,0.0,0.0,94,0.00,,,0.00,,2013-12-27 07:42:00,
2013-12-27 02:52:00,23.0,22.0,30.40,SSE,167,0.0,0.0,94,0.00,,,0.00,,2013-12-27 07:52:00,
2013-12-27 03:22:00,23.0,22.0,30.40,SSE,167,0.0,0.0,94,0.00,,,0.00,,2013-12-27 08:22:00,
2013-12-27 03:42:00,23.0,22.0,30.41,SSE,167,0.0,0.0,94,0.00,,,0.00,,2013-12-27 08:42:00,
2013-12-27 03:52:00,22.0,21.0,30.41,SSE,167,0.0,0.0,94,0.00,,,0.00,,2013-12-27 08:52:00,
2013-12-27 04:11:00,22.0,21.0,30.41,SSE,167,0.0,0.0,94,0.00,,,0.00,,2013-12-27 09:11:00,
2013-12-27 04:22:00,22.0,21.0,30.41,SSE,167,0.0,0.0,95,0.00,,,0.00,,2013-12-27 09:22:00,
2013-12-27 04:43:00,22.0,21.0,30.40,SSE,167,0.0,0.0,95,0.00,,,0.00,,2013-12-27 09:43:00,
2013-12-27 04:53:00,22.0,21.0,30.41,SSE,167,0.0,0.0,95,0.00,,,0.00,,2013-12-27 09:53:00,
2013-12-27 05:23:00,21.0,20.0,30.41,SSE,167,0.0,0.0,95,0.00,,,0.00,,2013-12-27 10:23:00,
2013-12-27 05:42:00,21.0,20.0,30.41,SSE,167,0.0,0.0,95,0.00,,,0.00,,2013-12-27 10:42:00,
2013-12-27 05:52:00,21.0,20.0,30.42,SSE,167,0.0,0.0,95,0.00,,,0.00,,2013-12-27 10:52:00,
2013-12-27 06:12:00,21.0,20.0,30.42,SSE,167,0.0,0.0,95,0.00,,,0.00,,2013-12-27 11:12:00,
2013-12-27 06:22:00,21.0,20.0,30.42,SSE,167,0.0,0.0,95,0.00,,,0.00,,2013-12-27 11:22:00,
2013-12-27 06:43:00,21.0,20.0,30.42,SSE,167,0.0,0.0,95,0.00,,,0.00,,2013-12-27 11:43:00,
2013-12-27 06:53:00,21.0,20.0,30.42,SSE,167,0.0,0.0,95,0.00,,,0.00,,2013-12-27 11:53:00,
2013-12-27 07:12:00,21.0,20.0,30.43,SSE,167,0.0,0.0,95,0.00,,,0.00,,2013-12-27 12:12:00,
2013-12-27 07:22:00,20.0,19.0,30.44,SSE,167,0.0,0.0,95,0.00,,,0.00,,2013-12-27 12:22:00,
2013-12-27 07:42:00,20.0,19.0,30.44,SSE,167,0.0,0.0,95,0.00,,,0.00,,2013-12-27 12:42:00,
2013-12-27 07:52:00,20.0,19.0,30.45,SSE,167,0.0,0.0,95,0.00,,,0.00,,2013-12-27 12:52:00,
2013-12-27 08:12:00,20.0,19.0,30.46,SSE,167,0.0,0.0,95,0.00,,,0.00,,2013-12-27 13:12:00,
2013-12-27 08:22:00,20.0,19.0,30.46,SSE,167,0.0,0.0,95,0.00,,,0.00,,2013-12-27 13:22:00,
2013-12-27 08:42:00,20.0,19.0,30.47,SSE,167,0.0,0.0,95,0.00,,,0.00,,2013-12-27 13:42:00,
2013-12-27 08:52:00,20.0,19.0,30.47,SSE,167,0.0,0.0,95,0.00,,,0.00,,2013-12-27 13:52:00,
2013-12-27 09:12:00,20.0,19.0,30.48,SSE,167,0.0,0.0,95,0.00,,,0.00,,2013-12-27 14:12:00,
2013-12-27 09:22:00,21.0,20.0,30.48,SSE,167,0.0,0.0,95,0.00,,,0.00,,2013-12-27 14:22:00,
2013-12-27 09:42:00,21.0,20.0,30.49,SSE,167,0.0,0.0,96,0.00,,,0.00,,2013-12-27 14:42:00,
2013-12-27 09:52:00,21.0,20.0,30.49,SSE,167,0.0,0.0,96,0.00,,,0.00,,2013-12-27 14:52:00,
2013-12-27 10:22:00,23.0,22.0,30.49,SSE,167,0.0,0.0,97,0.00,,,0.00,,2013-12-27 15:22:00,
2013-12-27 10:43:00,24.0,23.0,30.49,SSE,167,0.0,0.0,97,0.00,,,0.00,,2013-12-27 15:43:00,
2013-12-27 10:54:00,25.0,24.0,30.50,SSE,167,0.0,0.0,97,0.00,,,0.00,,2013-12-27 15:54:00,
2013-12-27 11:13:00,27.0,26.0,30.51,SSE,167,0.0,0.0,97,0.00,,,0.00,,2013-12-27 16:13:00,
2013-12-27 11:23:00,29.0,27.0,30.50,SSE,167,0.0,0.0,94,0.00,,,0.00,,2013-12-27 16:23:00,
2013-12-27 11:43:00,31.0,29.0,30.50,SSE,167,0.0,0.0,91,0.00,,,0.00,,2013-12-27 16:43:00,
2013-12-27 11:53:00,32.0,29.0,30.50,SSE,167,0.0,2.0,87,0.00,,,0.00,,2013-12-27 16:53:00,
2013-12-27 12:22:00,36.0,30.0,30.48,SSE,167,0.0,2.0,79,0.00,,,0.00,,2013-12-27 17:22:00,
2013-12-27 12:43:00,37.0,29.0,30.47,SSE,167,0.0,2.0,74,0.00,,,0.00,,2013-12-27 17:43:00,
2013-12-27 12:52:00,39.0,30.0,30.46,SSE,167,0.0,2.0,70,0.00,,,0.00,,2013-12-27 17:52:00,
2013-12-27 13:12:00,41.0,29.0,30.45,SSE,167,0.0,1.0,62,0.00,,,0.00,,2013-12-27 18:12:00,
2013-12-27 13:22:00,42.0,31.0,30.43,SSE,167,0.0,1.0,66,0.00,,,0.00,,2013-12-27 18:22:00,
2013-12-27 13:42:00,43.0,30.0,30.43,SSE,167,0.0,2.0,60,0.00,,,0.00,,2013-12-27 18:42:00,
2013-12-27 13:53:00,44.0,31.0,30.42,SSE,167,0.0,2.0,61,0.00,,,0.00,,2013-12-27 18:53:00,
2013-12-27 14:12:00,44.0,30.0,30.41,SSE,167,0.0,1.0,58,0.00,,,0.00,,2013-12-27 19:12:00,
2013-12-27 14:22:00,45.0,30.0,30.41,WSW,257,0.0,3.0,56,0.00,,,0.00,,2013-12-27 19:22:00,
2013-12-27 14:42:00,46.0,29.0,30.41,WSW,246,0.0,3.0,51,0.00,,,0.00,,2013-12-27 19:42:00,
2013-12-27 14:52:00,47.0,29.0,30.40,WNW,286,0.0,2.0,50,0.00,,,0.00,,2013-12-27 19:52:00,
2013-12-27 15:11:00,47.0,29.0,30.40,WNW,299,0.0,4.0,49,0.00,,,0.00,,2013-12-27 20:11:00,
2013-12-27 15:22:00,47.0,28.0,30.40,West,275,0.0,2.0,47,0.00,,,0.00,,2013-12-27 20:22:00,
2013-12-27 15:32:00,47.0,28.0,30.40,West,275,0.0,2.0,47,0.00,,,0.00,,2013-12-27 20:32:00,
2013-12-27 15:52:00,47.0,25.0,30.41,WNW,295,1.0,3.0,42,0.00,,,0.00,,2013-12-27 20:52:00,
2013-12-27 16:22:00,47.0,25.0,30.41,WNW,295,0.0,2.0,41,0.00,,,0.00,,2013-12-27 21:22:00,
2013-12-27 16:43:00,47.0,27.0,30.40,WNW,295,0.0,1.0,45,0.00,,,0.00,,2013-12-27 21:43:00,
2013-12-27 16:53:00,47.0,27.0,30.40,WNW,295,0.0,1.0,45,0.00,,,0.00,,2013-12-27 21:53:00,
2013-12-27 17:23:00,47.0,27.0,30.40,WNW,295,0.0,2.0,45,0.00,,,0.00,,2013-12-27 22:23:00,
2013-12-27 17:43:00,47.0,27.0,30.39,WNW,295,1.0,2.0,45,0.00,,,0.00,,2013-12-27 22:43:00,
2013-12-27 17:52:00,46.0,27.0,30.39,WNW,295,0.0,2.0,47,0.00,,,0.00,,2013-12-27 22:52:00,
2013-12-27 18:12:00,45.0,29.0,30.40,WNW,295,0.0,0.0,53,0.00,,,0.00,,2013-12-27 23:12:00,
2013-12-27 18:22:00,44.0,27.0,30.40,WNW,295,1.0,2.0,50,0.00,,,0.00,,2013-12-27 23:22:00,
2013-12-27 18:52:00,42.0,29.0,30.40,WNW,295,0.0,0.0,59,0.00,,,0.00,,2013-12-27 23:52:00,
2013-12-27 19:11:00,40.0,30.0,30.41,WNW,295,0.0,0.0,67,0.00,,,0.00,,2013-12-28 00:11:00,
2013-12-27 19:22:00,39.0,29.0,30.41,WNW,295,0.0,0.0,66,0.00,,,0.00,,2013-12-28 00:22:00,
2013-12-27 19:42:00,37.0,28.0,30.41,WNW,295,0.0,0.0,69,0.00,,,0.00,,2013-12-28 00:42:00,
2013-12-27 19:52:00,36.0,28.0,30.41,WNW,295,0.0,0.0,71,0.00,,,0.00,,2013-12-28 00:52:00,
2013-12-27 20:12:00,36.0,28.0,30.42,WNW,295,0.0,0.0,73,0.00,,,0.00,,2013-12-28 01:12:00,
2013-12-27 20:22:00,35.0,28.0,30.42,WNW,295,0.0,0.0,75,0.00,,,0.00,,2013-12-28 01:22:00,
2013-12-27 20:42:00,34.0,28.0,30.43,WNW,295,0.0,0.0,78,0.00,,,0.00,,2013-12-28 01:42:00,
2013-12-27 20:52:00,33.0,27.0,30.42,WNW,295,0.0,0.0,79,0.00,,,0.00,,2013-12-28 01:52:00,
2013-12-27 21:12:00,32.0,27.0,30.43,WNW,295,0.0,0.0,80,0.00,,,0.00,,2013-12-28 02:12:00,
2013-12-27 21:22:00,32.0,27.0,30.44,WNW,295,0.0,0.0,82,0.00,,,0.00,,2013-12-28 02:22:00,
2013-12-27 21:52:00,31.0,27.0,30.44,WNW,295,0.0,0.0,85,0.00,,,0.00,,2013-12-28 02:52:00,
2013-12-27 22:12:00,30.0,26.0,30.44,WNW,295,0.0,0.0,85,0.00,,,0.00,,2013-12-28 03:12:00,
2013-12-27 22:22:00,29.0,25.0,30.44,WNW,295,0.0,0.0,86,0.00,,,0.00,,2013-12-28 03:22:00,
2013-12-27 22:43:00,29.0,26.0,30.45,WNW,295,0.0,0.0,88,0.00,,,0.00,,2013-12-28 03:43:00,
2013-12-27 22:53:00,29.0,26.0,30.45,WNW,295,0.0,0.0,89,0.00,,,0.00,,2013-12-28 03:53:00,
2013-12-27 23:23:00,28.0,25.0,30.45,WNW,295,0.0,0.0,89,0.00,,,0.00,,2013-12-28 04:23:00,
2013-12-27 23:42:00,28.0,25.0,30.45,WNW,295,0.0,0.0,90,0.00,,,0.00,,2013-12-28 04:42:00,
2013-12-27 23:52:00,27.0,24.0,30.46,WNW,295,0.0,0.0,90,0.00,,,0.00,,2013-12-28 04:52:00,